Hourly Data Report for October 04, 2019

SAINT JOHN A
NEW BRUNSWICK
Current Station Operator: NAVCAN

45°18'58.000" N
65°53'24.000" W
108.80 m
8104901
71609
YSJ

Download Data

Hourly Data (October 2019)
Hourly Data Report for October 4, 2019
TIME
LST
Temp Definition
°C
Dew Point Definition
°C
Rel Hum Definition
%
Precip. Amount Definition
mm

Wind Dir Definition
10's deg

Wind Spd Definition
km/h
Visibility Definition
km
Stn Press Definition
kPa
Hmdx Definition


Wind Chill Definition


Weather Definition


00:00 5.6 4.5 92   20 4 24.1 100.48     LegendNANA
01:00 5.0 4.1 94   36 2 24.1 100.41     LegendNANA
02:00 5.5 4.6 94   36 1 24.1 100.32     Cloudy
03:00 4.7 4.4 98   36 1 24.1 100.23     LegendNANA
04:00 5.0 4.1 94   36 3 24.1 100.18     LegendNANA
05:00 4.8 4.3 97   5 5 24.1 100.12     Cloudy
06:00 6.2 4.4 88   32 8 24.1 100.11     Rain
07:00 5.7 4.8 94   35 13 9.7 100.12     Rain,Fog
08:00 5.2 4.1 93   36 11 12.9 100.15     Rain
09:00 5.5 4.2 91   3 16 12.9 100.10     Rain
10:00 6.1 4.0 86   2 18 16.1 100.09     Rain
11:00 7.7 4.2 78   1 17 19.3 100.04     Cloudy
12:00 7.0 3.9 81   35 22 24.1 100.03     LegendNANA
13:00 7.7 4.0 77   34 22 24.1 100.01     LegendNANA
14:00 8.3 3.5 71   35 26 24.1 99.99     Mostly Cloudy
15:00 8.4 3.6 72   35 27 24.1 100.02     LegendNANA
16:00 7.2 4.6 83   34 14 24.1 100.06     LegendNANA
17:00 6.0 2.8 80   36 22 24.1 100.17     Mostly Cloudy
18:00 5.4 3.9 90   32 14 24.1 100.23     LegendNANA
19:00 5.7 1.9 77   33 22 24.1 100.30     LegendNANA
20:00 4.4 1.5 81   33 20 24.1 100.39     Mainly Clear
21:00 3.9 0.4 78   33 26 24.1 100.45     LegendNANA
22:00 3.6 0.0 77   33 20 24.1 100.50     LegendNANA
23:00 3.4 -0.2 77   32 21 24.1 100.53     Clear

Notes on Data Quality.

Legend

  • E = Estimated
  • M = Missing
  • NA = Not Available*
  • [empty] = Indicates an unobserved value
Date modified: